Location: Sungai Bunut
(2.6333°N, 113.7333°E)
Time: 16:23:20
(UTC+00:00)

Vanguard 3 - Pass Details

Date: 03 December 2023
Orbit: 508 x 3239 km, 33.3° (Epoch: 21 February)

Event Time Altitude Azimuth Distance (km) Brightness Sun altitude
Rises 01:39:10 0° 255° (WSW) 3,489 10.1 44.7°
Reaches altitude 10° 01:42:36 10° 232° (SW) 2,936 10.0 45.4°
Maximum altitude 01:46:47 16° 197° (SSW) 3,002 10.4 46.3°
Drops below altitude 10° 01:52:16 10° 164° (SSE) 4,050 11.4 47.4°
Sets 01:58:38 0° 145° (SE) 5,714 12.1 48.6°
